Weather in Slobodka

Ukraine / Odesa District     47°53′12″N   29°20′47″E
temp.,
°C
wind,
m/s
gust,
m/s
humid.,
%
clouds,
%
prec.,
mm/h
press.,
hPa
HPBL,
m
20 april, tue
tue2000:00+8ene2576100 0.0 1013117
03:00+6ne378361 0.0 1012144
06:00+5nne3583100 0.0 1011103
09:00+8nne476898 0.0 1011471
12:00+12n5652100 0.0 10091766
15:00+12nnw455088 0.1 10091819
18:00+12nw45495 0.0 10091530
21:00+9wnw226741 0.1 101035
21 april, wed
wed2100:00+7w22745 0.0 101113
03:00+6w227986 0.0 101127
06:00+6w2282100 0.0 101221
09:00+9w357391 0.0 1013335
12:00+13w455637 0.3 10131341
15:00+14w5651100 1.6 10131717
18:00+13w476079 0.6 1014404
21:00+10sw226954 0.9 101523
22 april, thu
thu2200:00+9sw22715 0.0 101621
03:00+8s22745 0.0 101623
06:00+7sw22795 0.0 101616
09:00+12wsw236463 0.0 1017264
12:00+16sw34485 0.0 10171376
15:00+17sw564229 0.0 10172275
18:00+16ssw3652100 0.0 1016425
21:00+14s235797 0.0 101653
23 april, fri
fri2300:00+12s38659 0.0 1016188
03:00+9s37785 0.0 1016126
06:00+8s36840 0.0 1016106
09:00+13ssw586569 0.0 1015399
12:00+17sw565341 0.8 10151430
15:00+11nw111178100 2.3 1015653
18:00+5n61086100 1.9 1019725
21:00+6nne3681100 2.6 1020461
24 april, sat
sat2400:00+5wsw35895 0.0 1021128
03:00+4wnw49880 0.0 1021257
06:00+3wnw613855 0.0 1021452
09:00+5nw812550 0.0 10231181
12:00+8nw811405 0.0 10231738
15:00+10nw683839 0.0 10221987
18:00+10wnw474241 0.0 10222010
21:00+7ssw345772 0.0 102263